FENGYUN 3H

Last updated on Wed Sep 09 2026 00:02:41 GMT+0000 (Coordinated Universal Time)

1 65815U 25219A 26251.47270450 .00000017 00000+0 28310-4 0 9994 2 65815 98.6806 190.6344 0001218 104.0845 256.0467 14.19932000 49209
UTC large
Height (km)
Speed (km/s)
/
Latitude / Longitude
Inclination (degrees)
Orbital Period (minutes)
Azimuth
Elevation
Range (km)
Doppler Factor

Next 0 passes for location: London (51.5072 / 0.1276)

No passes found over London.
FENGYUN 3H